ELY5118 UGTB-LLBG

Flight info

Callsign ELY5118
Flight time 2h 35m
Altitude 36000
Route ZAGOT DCT NOLGA UG261 TBN UW706 SIV UT284 EVKIT/N0446F350 UB545 VESAR/N0446F340 DCT EMEDA/N0448F350 DCT TUZIB L189 ZUKKO
Aircraft B738/M-SDE2E3FGHIJ1LORVWXY/LB1

Departure

Time 2026-04-25 13:26
Airport Tbilisi International Airport (UGTB)

Arrival

Time 2026-04-25 16:01
Airport Ben Gurion International Airport (LLBG)
Time Latitude Longitude Altitude Speed Heading
2026-04-25 12:57 41.66867 44.96051 1525 ft 0 kts 223°
2026-04-25 13:17 41.66880 44.96067 1525 ft 4 kts 220°
2026-04-25 13:18 41.66901 44.96089 1519 ft 4 kts 211°
2026-04-25 13:18 41.66925 44.96104 1525 ft 4 kts 190°
2026-04-25 13:18 41.66947 44.96102 1525 ft 3 kts 136°
2026-04-25 13:18 41.66949 44.96100 1525 ft 0 kts 133°
2026-04-25 13:20 41.66944 44.96107 1525 ft 2 kts 133°
2026-04-25 13:21 41.66925 44.96134 1520 ft 6 kts 133°
2026-04-25 13:21 41.66891 44.96192 1523 ft 10 kts 132°
2026-04-25 13:21 41.66841 44.96263 1522 ft 11 kts 134°
2026-04-25 13:21 41.66787 44.96339 1525 ft 11 kts 133°
2026-04-25 13:22 41.66733 44.96411 1526 ft 11 kts 144°
2026-04-25 13:22 41.66663 44.96423 1526 ft 11 kts 201°
2026-04-25 13:22 41.66594 44.96399 1518 ft 10 kts 194°
2026-04-25 13:23 41.66449 44.96357 1519 ft 12 kts 194°
2026-04-25 13:23 41.66368 44.96328 1522 ft 12 kts 194°
2026-04-25 13:23 41.66286 44.96302 1522 ft 12 kts 191°
2026-04-25 13:23 41.66198 44.96309 1523 ft 13 kts 163°
2026-04-25 13:24 41.66114 44.96375 1525 ft 15 kts 137°
2026-04-25 13:24 41.66038 44.96469 1525 ft 15 kts 137°
2026-04-25 13:24 41.65966 44.96563 1521 ft 14 kts 136°
2026-04-25 13:24 41.65881 44.96594 1522 ft 13 kts 203°
2026-04-25 13:25 41.65843 44.96494 1524 ft 13 kts 279°
2026-04-25 13:25 41.65890 44.96397 1521 ft 13 kts 314°
2026-04-25 13:25 41.66041 44.96207 1524 ft 62 kts 316°
2026-04-25 13:25 41.66518 44.95610 1523 ft 124 kts 317°
2026-04-25 13:26 41.67249 44.94667 1713 ft 159 kts 317°
2026-04-25 13:26 41.68092 44.93643 2350 ft 171 kts 317°
2026-04-25 13:26 41.68950 44.92576 3222 ft 170 kts 317°
2026-04-25 13:26 41.69827 44.91482 3850 ft 186 kts 317°
2026-04-25 13:27 41.70823 44.90233 4204 ft 200 kts 316°
2026-04-25 13:27 41.71830 44.88971 4906 ft 201 kts 315°
2026-04-25 13:27 41.72917 44.87611 5085 ft 226 kts 315°
2026-04-25 13:27 41.74131 44.86090 5345 ft 250 kts 315°
2026-04-25 13:28 41.75417 44.84480 6083 ft 255 kts 314°
2026-04-25 13:28 41.75837 44.83952 6347 ft 257 kts 314°
2026-04-25 13:28 41.77968 44.81073 7609 ft 261 kts 297°
2026-04-25 13:28 41.78395 44.78798 8480 ft 255 kts 270°
2026-04-25 13:29 41.78411 44.76434 9410 ft 254 kts 269°
2026-04-25 13:29 41.78413 44.74057 10214 ft 256 kts 269°
2026-04-25 13:29 41.78411 44.71597 10601 ft 275 kts 269°
2026-04-25 13:30 41.78412 44.66994 11005 ft 311 kts 270°
2026-04-25 13:30 41.78419 44.63154 12012 ft 313 kts 271°
2026-04-25 13:30 41.78427 44.60215 12696 ft 317 kts 271°
2026-04-25 13:31 41.78447 44.54207 13957 ft 328 kts 272°
2026-04-25 13:31 41.78458 44.51141 14671 ft 329 kts 271°
2026-04-25 13:31 41.78465 44.48067 15328 ft 332 kts 271°
2026-04-25 13:31 41.78471 44.44964 16000 ft 334 kts 271°
2026-04-25 13:32 41.78477 44.41834 16619 ft 337 kts 271°
2026-04-25 13:32 41.78482 44.38684 17218 ft 340 kts 271°
2026-04-25 13:32 41.78487 44.35494 17746 ft 345 kts 271°
2026-04-25 13:32 41.78492 44.32259 18347 ft 349 kts 270°
2026-04-25 13:33 41.78495 44.28998 18919 ft 351 kts 270°
2026-04-25 13:33 41.78498 44.25706 19460 ft 355 kts 270°
2026-04-25 13:33 41.78500 44.22388 19959 ft 358 kts 270°
2026-04-25 13:33 41.78501 44.21305 20128 ft 359 kts 270°
2026-04-25 13:34 41.78498 44.15656 20999 ft 364 kts 269°
2026-04-25 13:34 41.78152 44.12282 21443 ft 370 kts 254°
2026-04-25 13:34 41.77228 44.09055 21966 ft 372 kts 250°
2026-04-25 13:34 41.76246 44.05875 22420 ft 376 kts 249°
2026-04-25 13:35 41.75234 44.02625 22865 ft 380 kts 249°
2026-04-25 13:35 41.74215 43.99345 23332 ft 383 kts 249°
2026-04-25 13:35 41.73196 43.96041 23804 ft 385 kts 249°
2026-04-25 13:35 41.72174 43.92715 24198 ft 388 kts 250°
2026-04-25 13:36 41.71148 43.89362 24580 ft 391 kts 249°
2026-04-25 13:36 41.70116 43.85985 24982 ft 392 kts 250°
2026-04-25 13:36 41.69080 43.82596 25353 ft 395 kts 250°
2026-04-25 13:36 41.68038 43.79185 25712 ft 397 kts 250°
2026-04-25 13:37 41.66988 43.75753 26062 ft 400 kts 250°
2026-04-25 13:37 41.65931 43.72305 26421 ft 402 kts 250°
2026-04-25 13:37 41.64868 43.68841 26771 ft 404 kts 249°
2026-04-25 13:37 41.63799 43.65359 27121 ft 406 kts 249°
2026-04-25 13:38 41.62723 43.61861 27496 ft 407 kts 249°
2026-04-25 13:38 41.61642 43.58353 27805 ft 410 kts 249°
2026-04-25 13:38 41.60553 43.54820 28108 ft 412 kts 249°
2026-04-25 13:38 41.59456 43.51270 28421 ft 414 kts 249°
2026-04-25 13:39 41.58355 43.47708 28741 ft 416 kts 249°
2026-04-25 13:39 41.57247 43.44130 29050 ft 418 kts 249°
2026-04-25 13:39 41.56132 43.40535 29334 ft 420 kts 249°
2026-04-25 13:39 41.55010 43.36920 29578 ft 423 kts 249°
2026-04-25 13:40 41.53880 43.33286 29834 ft 425 kts 249°
2026-04-25 13:40 41.52745 43.29641 30163 ft 426 kts 249°
2026-04-25 13:40 41.51609 43.25999 30546 ft 424 kts 249°
2026-04-25 13:40 41.50479 43.22381 30941 ft 421 kts 249°
2026-04-25 13:41 41.49353 43.18776 31283 ft 420 kts 249°
2026-04-25 13:41 41.48227 43.15179 31591 ft 420 kts 249°
2026-04-25 13:41 41.47102 43.11590 31932 ft 419 kts 249°
2026-04-25 13:41 41.45981 43.08014 32285 ft 417 kts 249°
2026-04-25 13:42 41.44861 43.04449 32583 ft 417 kts 248°
2026-04-25 13:42 41.43738 43.00881 32827 ft 418 kts 248°
2026-04-25 13:42 41.42752 42.97247 33105 ft 417 kts 255°
2026-04-25 13:42 41.42184 42.93475 33451 ft 415 kts 261°
2026-04-25 13:43 41.41752 42.89739 33802 ft 413 kts 261°
2026-04-25 13:43 41.41318 42.85966 34107 ft 412 kts 261°
2026-04-25 13:43 41.40878 42.82199 34342 ft 412 kts 261°
2026-04-25 13:43 41.40431 42.78434 34601 ft 411 kts 261°
2026-04-25 13:44 41.39980 42.74689 34859 ft 409 kts 261°
2026-04-25 13:44 41.39525 42.70949 35091 ft 409 kts 261°
2026-04-25 13:44 41.39068 42.67213 35293 ft 409 kts 261°
2026-04-25 13:44 41.38608 42.63473 35501 ft 409 kts 260°
2026-04-25 13:45 41.38147 42.59739 35705 ft 409 kts 260°
2026-04-25 13:45 41.37685 42.56012 35949 ft 407 kts 260°
2026-04-25 13:45 41.37380 42.53552 36113 ft 406 kts 260°
2026-04-25 13:46 41.36450 42.46085 36175 ft 410 kts 260°
2026-04-25 13:46 41.35515 42.38614 36175 ft 408 kts 260°
2026-04-25 13:47 41.34578 42.31161 36159 ft 407 kts 260°
2026-04-25 13:47 41.33639 42.23742 36167 ft 406 kts 260°
2026-04-25 13:48 41.32699 42.16346 36175 ft 405 kts 260°
2026-04-25 13:48 41.31755 42.08964 36156 ft 404 kts 260°
2026-04-25 13:49 41.30808 42.01587 36169 ft 405 kts 260°
2026-04-25 13:49 41.29851 41.94190 36160 ft 407 kts 260°
2026-04-25 13:50 41.28872 41.86769 36172 ft 409 kts 259°
2026-04-25 13:50 41.27886 41.79355 36176 ft 411 kts 259°
2026-04-25 13:51 41.26886 41.71860 36172 ft 412 kts 259°
2026-04-25 13:51 41.25881 41.64362 36174 ft 412 kts 259°
2026-04-25 13:52 41.24871 41.56856 36161 ft 413 kts 259°
2026-04-25 13:52 41.23853 41.49339 36144 ft 414 kts 259°
2026-04-25 13:53 41.22832 41.41821 36154 ft 414 kts 259°
2026-04-25 13:53 41.21805 41.34305 36162 ft 414 kts 259°
2026-04-25 13:54 41.20771 41.26783 36165 ft 414 kts 259°
2026-04-25 13:54 41.19734 41.19270 36161 ft 414 kts 259°
2026-04-25 13:55 41.18692 41.11767 36156 ft 413 kts 259°
2026-04-25 13:55 41.17647 41.04274 36151 ft 412 kts 259°
2026-04-25 13:56 41.16599 40.96796 36160 ft 412 kts 259°
2026-04-25 13:56 41.15548 40.89330 36156 ft 411 kts 259°
2026-04-25 13:57 41.14493 40.81879 36158 ft 410 kts 259°
2026-04-25 13:57 41.13436 40.74443 36151 ft 410 kts 259°
2026-04-25 13:58 41.12374 40.67010 36159 ft 410 kts 259°
2026-04-25 13:58 41.11306 40.59578 36151 ft 410 kts 259°
2026-04-25 13:59 41.10233 40.52141 36146 ft 411 kts 259°
2026-04-25 13:59 41.09155 40.44705 36138 ft 411 kts 259°
2026-04-25 14:00 41.08253 40.38508 36133 ft 412 kts 258°
2026-04-25 14:00 41.06985 40.29843 36135 ft 412 kts 258°
2026-04-25 14:01 41.05888 40.22379 36137 ft 413 kts 258°
2026-04-25 14:01 41.04784 40.14910 36137 ft 414 kts 258°
2026-04-25 14:02 41.03675 40.07433 36147 ft 414 kts 258°
2026-04-25 14:02 41.02558 39.99944 36140 ft 414 kts 258°
2026-04-25 14:03 41.01438 39.92460 36155 ft 414 kts 258°
2026-04-25 14:03 41.00312 39.84978 36158 ft 414 kts 258°
2026-04-25 14:04 40.98781 39.77637 36153 ft 414 kts 246°
2026-04-25 14:04 40.96135 39.70860 36156 ft 415 kts 243°
2026-04-25 14:05 40.93439 39.64125 36159 ft 415 kts 243°
2026-04-25 14:05 40.90759 39.57375 36156 ft 415 kts 243°
2026-04-25 14:06 40.88086 39.50617 36135 ft 414 kts 243°
2026-04-25 14:06 40.85417 39.43872 36122 ft 414 kts 243°
2026-04-25 14:07 40.82744 39.37134 36108 ft 414 kts 243°
2026-04-25 14:07 40.80065 39.30396 36096 ft 414 kts 243°
2026-04-25 14:08 40.77405 39.23721 36103 ft 414 kts 243°
2026-04-25 14:08 40.74723 39.17007 36087 ft 414 kts 243°
2026-04-25 14:09 40.72040 39.10304 36096 ft 413 kts 243°
2026-04-25 14:09 40.69350 39.03597 36081 ft 414 kts 243°
2026-04-25 14:10 40.66661 38.96906 36092 ft 413 kts 243°
2026-04-25 14:10 40.63965 38.90216 36092 ft 414 kts 242°
2026-04-25 14:11 40.61258 38.83540 36101 ft 413 kts 242°
2026-04-25 14:11 40.58549 38.76883 36107 ft 412 kts 242°
2026-04-25 14:12 40.55840 38.70233 36101 ft 412 kts 242°
2026-04-25 14:12 40.53129 38.63585 36103 ft 412 kts 242°
2026-04-25 14:13 40.50416 38.56956 36093 ft 412 kts 242°
2026-04-25 14:13 40.47635 38.50388 36096 ft 411 kts 241°
2026-04-25 14:14 40.44832 38.43858 36100 ft 410 kts 241°
2026-04-25 14:14 40.42041 38.37338 36078 ft 410 kts 241°
2026-04-25 14:15 40.39275 38.30876 36081 ft 408 kts 241°
2026-04-25 14:15 40.36540 38.24358 36081 ft 408 kts 243°
2026-04-25 14:16 40.33910 38.17764 36069 ft 408 kts 243°
2026-04-25 14:16 40.31234 38.11217 36066 ft 407 kts 242°
2026-04-25 14:17 40.28480 38.04745 36056 ft 406 kts 241°
2026-04-25 14:17 40.25724 37.98291 36050 ft 406 kts 241°
2026-04-25 14:18 40.22974 37.91836 36041 ft 406 kts 241°
2026-04-25 14:18 40.20230 37.85395 36037 ft 405 kts 241°
2026-04-25 14:19 40.17483 37.78957 36052 ft 406 kts 241°
2026-04-25 14:19 40.14726 37.72512 36047 ft 407 kts 241°
2026-04-25 14:20 40.11979 37.66101 36053 ft 407 kts 241°
2026-04-25 14:20 40.09204 37.59638 36045 ft 408 kts 241°
2026-04-25 14:21 40.06429 37.53171 36047 ft 409 kts 241°
2026-04-25 14:21 40.03660 37.46686 36054 ft 409 kts 241°
2026-04-25 14:22 40.00882 37.40192 36049 ft 410 kts 241°
2026-04-25 14:22 39.98099 37.33700 36049 ft 410 kts 241°
2026-04-25 14:23 39.95309 37.27211 36064 ft 410 kts 241°
2026-04-25 14:23 39.92515 37.20724 36077 ft 410 kts 241°
2026-04-25 14:24 39.89720 37.14249 36093 ft 410 kts 241°
2026-04-25 14:24 39.86923 37.07781 36112 ft 410 kts 241°
2026-04-25 14:25 39.84123 37.01318 36129 ft 409 kts 240°
2026-04-25 14:25 39.81324 36.94873 36133 ft 409 kts 240°
2026-04-25 14:26 39.78017 36.88882 36131 ft 409 kts 227°
2026-04-25 14:26 39.73606 36.84181 36139 ft 411 kts 218°
2026-04-25 14:27 39.68953 36.79853 36111 ft 412 kts 218°
2026-04-25 14:27 39.64303 36.75516 36087 ft 412 kts 218°
2026-04-25 14:28 39.59661 36.71166 36076 ft 412 kts 218°
2026-04-25 14:28 39.55052 36.66840 36062 ft 412 kts 218°
2026-04-25 14:29 39.50406 36.62483 36038 ft 412 kts 218°
2026-04-25 14:29 39.45760 36.58133 36050 ft 412 kts 218°
2026-04-25 14:30 39.41106 36.53783 36040 ft 413 kts 218°
2026-04-25 14:30 39.34113 36.47261 36041 ft 414 kts 217°
2026-04-25 14:31 39.29439 36.42912 36040 ft 414 kts 217°
2026-04-25 14:31 39.24760 36.38565 36043 ft 415 kts 217°
2026-04-25 14:32 39.20070 36.34215 36035 ft 415 kts 217°
2026-04-25 14:32 39.16171 36.30604 36046 ft 415 kts 217°
2026-04-25 14:33 39.11475 36.26262 36042 ft 416 kts 217°
2026-04-25 14:33 39.06770 36.21919 36033 ft 416 kts 217°
2026-04-25 14:34 39.02056 36.17575 36050 ft 417 kts 217°
2026-04-25 14:34 38.97341 36.13237 36049 ft 417 kts 217°
2026-04-25 14:35 38.92623 36.08904 36041 ft 417 kts 217°
2026-04-25 14:35 38.87906 36.04579 36039 ft 416 kts 217°
2026-04-25 14:36 38.83194 36.00266 36043 ft 416 kts 217°
2026-04-25 14:36 38.78481 35.95958 36051 ft 416 kts 217°
2026-04-25 14:37 38.73774 35.91664 36054 ft 415 kts 217°
2026-04-25 14:37 38.69069 35.87377 36065 ft 415 kts 217°
2026-04-25 14:38 38.64364 35.83099 36051 ft 415 kts 217°
2026-04-25 14:38 38.59689 35.78854 36051 ft 414 kts 217°
2026-04-25 14:39 38.54989 35.74593 36056 ft 414 kts 217°
2026-04-25 14:39 38.50285 35.70336 36043 ft 414 kts 217°
2026-04-25 14:40 38.45579 35.66084 36057 ft 414 kts 217°
2026-04-25 14:40 38.40870 35.61836 36049 ft 415 kts 217°
2026-04-25 14:41 38.36154 35.57587 36037 ft 415 kts 217°
2026-04-25 14:41 38.31436 35.53345 36034 ft 416 kts 217°
2026-04-25 14:42 38.27505 35.49822 36046 ft 416 kts 217°
2026-04-25 14:42 38.21956 35.44862 36016 ft 417 kts 217°
2026-04-25 14:43 38.17196 35.40612 36026 ft 418 kts 217°
2026-04-25 14:43 38.12429 35.36362 36029 ft 419 kts 217°
2026-04-25 14:44 38.07652 35.32109 36027 ft 420 kts 217°
2026-04-25 14:44 38.02871 35.27861 36032 ft 419 kts 217°
2026-04-25 14:45 37.98092 35.23619 36038 ft 419 kts 217°
2026-04-25 14:45 37.93350 35.19419 36042 ft 419 kts 217°
2026-04-25 14:46 37.88572 35.15192 36034 ft 419 kts 216°
2026-04-25 14:46 37.83792 35.10971 36040 ft 419 kts 216°
2026-04-25 14:47 37.79818 35.07466 36027 ft 419 kts 216°
2026-04-25 14:47 37.74225 35.02543 36034 ft 419 kts 217°
2026-04-25 14:48 37.69443 34.98340 36039 ft 418 kts 216°
2026-04-25 14:48 37.64665 34.94148 36021 ft 418 kts 216°
2026-04-25 14:49 37.59886 34.89961 36027 ft 418 kts 216°
2026-04-25 14:49 37.55109 34.85783 36017 ft 417 kts 216°
2026-04-25 14:50 37.50335 34.81613 36021 ft 418 kts 216°
2026-04-25 14:50 37.45559 34.77449 35999 ft 418 kts 216°
2026-04-25 14:51 37.40815 34.73320 36030 ft 417 kts 216°
2026-04-25 14:51 37.36037 34.69167 36031 ft 418 kts 216°
2026-04-25 14:52 37.31247 34.65010 36015 ft 419 kts 216°
2026-04-25 14:52 37.27219 34.61519 36029 ft 420 kts 216°
2026-04-25 14:53 37.21630 34.56684 36010 ft 420 kts 216°
2026-04-25 14:53 37.16810 34.52522 36032 ft 420 kts 216°
2026-04-25 14:54 37.11989 34.48365 36005 ft 421 kts 216°
2026-04-25 14:54 37.07162 34.44208 36001 ft 421 kts 216°
2026-04-25 14:55 37.02325 34.40050 36008 ft 422 kts 216°
2026-04-25 14:55 36.97485 34.35896 35989 ft 422 kts 216°
2026-04-25 14:56 36.92645 34.31749 36020 ft 422 kts 216°
2026-04-25 14:56 36.87800 34.27603 35994 ft 422 kts 216°
2026-04-25 14:57 36.82951 34.23461 35975 ft 422 kts 216°
2026-04-25 14:57 36.78105 34.19327 35996 ft 422 kts 216°
2026-04-25 14:58 36.73263 34.15202 35985 ft 421 kts 216°
2026-04-25 14:58 36.68427 34.11090 35980 ft 421 kts 216°
2026-04-25 14:59 36.63627 34.07018 35970 ft 420 kts 215°
2026-04-25 14:59 36.58795 34.02929 35955 ft 420 kts 215°
2026-04-25 15:00 36.53967 33.98848 35971 ft 419 kts 215°
2026-04-25 15:00 36.49142 33.94774 35967 ft 419 kts 215°
2026-04-25 15:01 36.44313 33.90703 35953 ft 420 kts 215°
2026-04-25 15:01 36.39477 33.86631 35948 ft 421 kts 215°
2026-04-25 15:02 36.34627 33.82553 35940 ft 421 kts 215°
2026-04-25 15:02 36.29668 33.78694 35919 ft 423 kts 201°
2026-04-25 15:03 36.26799 33.77908 35959 ft 426 kts 185°
2026-04-25 15:03 36.23829 33.78116 35946 ft 430 kts 172°
2026-04-25 15:03 36.20961 33.79230 35927 ft 437 kts 156°
2026-04-25 15:03 36.18316 33.81111 35951 ft 439 kts 152°
2026-04-25 15:04 36.13139 33.85172 35934 ft 441 kts 150°
2026-04-25 15:04 36.07975 33.89191 35929 ft 442 kts 151°
2026-04-25 15:05 36.02728 33.93182 35924 ft 443 kts 152°
2026-04-25 15:06 35.94821 33.99120 35914 ft 442 kts 156°
2026-04-25 15:06 35.91977 34.00483 35919 ft 436 kts 169°
2026-04-25 15:06 35.89005 34.01063 35914 ft 431 kts 180°
2026-04-25 15:07 35.83081 34.00438 35918 ft 427 kts 190°
2026-04-25 15:07 35.77184 33.99473 35930 ft 428 kts 190°
2026-04-25 15:08 35.71277 33.98542 35921 ft 428 kts 189°
2026-04-25 15:08 35.65367 33.97643 35920 ft 428 kts 189°
2026-04-25 15:09 35.59456 33.96756 35914 ft 428 kts 189°
2026-04-25 15:09 35.50601 33.95431 35925 ft 427 kts 189°
2026-04-25 15:10 35.44706 33.94550 35928 ft 427 kts 189°
2026-04-25 15:11 35.35859 33.93229 35927 ft 427 kts 189°
2026-04-25 15:11 35.29965 33.92351 35913 ft 427 kts 189°
2026-04-25 15:12 35.21130 33.91038 35918 ft 426 kts 189°
2026-04-25 15:12 35.17234 33.90459 35915 ft 426 kts 189°
2026-04-25 15:13 35.06414 33.88856 35912 ft 426 kts 190°
2026-04-25 15:14 35.00533 33.87986 35920 ft 426 kts 190°
2026-04-25 15:14 34.94688 33.87123 35911 ft 426 kts 190°
2026-04-25 15:15 34.88768 33.86250 35906 ft 426 kts 190°
2026-04-25 15:15 34.82892 33.85385 35911 ft 425 kts 190°
2026-04-25 15:16 34.77016 33.84520 35906 ft 425 kts 190°
2026-04-25 15:16 34.68253 33.83234 35891 ft 425 kts 190°
2026-04-25 15:17 34.59460 33.81946 35904 ft 424 kts 190°
2026-04-25 15:18 34.53607 33.81090 35903 ft 424 kts 190°
2026-04-25 15:18 34.44777 33.80457 35917 ft 427 kts 180°
2026-04-25 15:19 34.40803 33.80798 35904 ft 428 kts 180°
2026-04-25 15:19 34.33907 33.81397 35903 ft 428 kts 180°
2026-04-25 15:20 34.27968 33.81872 35905 ft 428 kts 180°
2026-04-25 15:20 34.22066 33.82332 35668 ft 419 kts 181°
2026-04-25 15:21 34.19164 33.82556 35109 ft 418 kts 181°
2026-04-25 15:21 34.16252 33.82779 34441 ft 421 kts 180°
2026-04-25 15:21 34.13346 33.83003 34192 ft 413 kts 180°
2026-04-25 15:21 34.10507 33.83224 33933 ft 405 kts 180°
2026-04-25 15:22 34.07706 33.83440 33673 ft 403 kts 180°
2026-04-25 15:22 34.04900 33.83654 33401 ft 404 kts 180°
2026-04-25 15:22 34.02097 33.83869 33128 ft 404 kts 180°
2026-04-25 15:22 33.99298 33.84086 32868 ft 403 kts 180°
2026-04-25 15:23 33.96501 33.84304 32608 ft 402 kts 180°
2026-04-25 15:23 33.93708 33.84522 32344 ft 401 kts 180°
2026-04-25 15:23 33.90929 33.84738 32086 ft 399 kts 180°
2026-04-25 15:23 33.88200 33.84951 31833 ft 397 kts 180°
2026-04-25 15:24 33.85449 33.85164 31576 ft 395 kts 180°
2026-04-25 15:24 33.82718 33.85376 31328 ft 392 kts 180°
2026-04-25 15:24 33.80006 33.85587 31062 ft 389 kts 180°
2026-04-25 15:24 33.78187 33.85728 30901 ft 387 kts 180°
2026-04-25 15:25 33.74649 33.86003 30575 ft 383 kts 180°
2026-04-25 15:25 33.71999 33.86208 30335 ft 380 kts 180°
2026-04-25 15:25 33.69370 33.86411 30093 ft 378 kts 180°
2026-04-25 15:25 33.66754 33.86614 29828 ft 375 kts 180°
2026-04-25 15:26 33.64160 33.86814 29547 ft 373 kts 180°
2026-04-25 15:26 33.61579 33.87013 29254 ft 370 kts 180°
2026-04-25 15:26 33.59030 33.87211 28918 ft 364 kts 180°
2026-04-25 15:26 33.56516 33.87406 28536 ft 360 kts 180°
2026-04-25 15:27 33.54032 33.87598 28159 ft 356 kts 180°
2026-04-25 15:27 33.51572 33.87787 27795 ft 352 kts 180°
2026-04-25 15:27 33.46723 33.88160 27044 ft 346 kts 180°
2026-04-25 15:28 33.44333 33.88344 26680 ft 343 kts 180°
2026-04-25 15:28 33.41960 33.88526 26323 ft 340 kts 180°
2026-04-25 15:28 33.39608 33.88706 25963 ft 338 kts 180°
2026-04-25 15:28 33.37269 33.88886 25604 ft 335 kts 180°
2026-04-25 15:29 33.34951 33.89063 25257 ft 333 kts 180°
2026-04-25 15:29 33.32649 33.89240 24912 ft 331 kts 180°
2026-04-25 15:29 33.30359 33.89415 24566 ft 329 kts 180°
2026-04-25 15:29 33.28083 33.89589 24223 ft 327 kts 180°
2026-04-25 15:30 33.25819 33.89763 23882 ft 325 kts 180°
2026-04-25 15:30 33.23565 33.89935 23548 ft 324 kts 180°
2026-04-25 15:30 33.21321 33.90107 23146 ft 322 kts 180°
2026-04-25 15:30 33.19090 33.90277 22787 ft 319 kts 180°
2026-04-25 15:31 33.16886 33.90442 22458 ft 316 kts 180°
2026-04-25 15:31 33.14697 33.90603 22114 ft 314 kts 180°
2026-04-25 15:31 33.12526 33.90764 21770 ft 311 kts 180°
2026-04-25 15:31 33.10369 33.90923 21437 ft 309 kts 180°
2026-04-25 15:32 33.08228 33.91081 21106 ft 308 kts 180°
2026-04-25 15:32 33.06087 33.91238 20786 ft 308 kts 180°
2026-04-25 15:32 33.03943 33.91395 20458 ft 310 kts 180°
2026-04-25 15:33 32.99521 33.91717 19785 ft 323 kts 180°
2026-04-25 15:33 32.97280 33.91883 19430 ft 322 kts 180°
2026-04-25 15:33 32.95050 33.92048 19077 ft 320 kts 180°
2026-04-25 15:33 32.92834 33.92213 18732 ft 318 kts 180°
2026-04-25 15:34 32.90630 33.92376 18389 ft 316 kts 180°
2026-04-25 15:34 32.88438 33.92538 18035 ft 315 kts 180°
2026-04-25 15:34 32.86258 33.92698 17660 ft 313 kts 180°
2026-04-25 15:34 32.84821 33.92804 17425 ft 312 kts 180°
2026-04-25 15:35 32.79802 33.93173 16625 ft 307 kts 180°
2026-04-25 15:35 32.77712 33.93326 16304 ft 304 kts 180°
2026-04-25 15:35 32.75607 33.93481 15950 ft 303 kts 180°
2026-04-25 15:36 32.71456 33.93785 15407 ft 296 kts 180°
2026-04-25 15:36 32.69405 33.93935 15081 ft 295 kts 180°
2026-04-25 15:36 32.67363 33.94084 14762 ft 293 kts 180°
2026-04-25 15:37 32.65330 33.94233 14451 ft 292 kts 180°
2026-04-25 15:37 32.63300 33.94381 14132 ft 292 kts 180°
2026-04-25 15:37 32.61277 33.94529 13818 ft 291 kts 180°
2026-04-25 15:37 32.59257 33.94677 13476 ft 291 kts 180°
2026-04-25 15:38 32.57244 33.94906 13115 ft 293 kts 169°
2026-04-25 15:38 32.55403 33.95960 12870 ft 297 kts 147°
2026-04-25 15:38 32.53869 33.97632 12671 ft 304 kts 137°
2026-04-25 15:38 32.52406 33.99488 12454 ft 311 kts 136°
2026-04-25 15:39 32.50929 34.01392 12219 ft 315 kts 136°
2026-04-25 15:39 32.49439 34.03298 11996 ft 314 kts 136°
2026-04-25 15:39 32.47943 34.05187 11736 ft 314 kts 136°
2026-04-25 15:39 32.46442 34.07063 11521 ft 313 kts 137°
2026-04-25 15:40 32.44941 34.08931 11295 ft 313 kts 136°
2026-04-25 15:40 32.44455 34.09536 11223 ft 312 kts 136°
2026-04-25 15:40 32.42496 34.13134 10820 ft 319 kts 106°
2026-04-25 15:40 32.42020 34.15699 10597 ft 320 kts 103°
2026-04-25 15:41 32.41583 34.18276 10338 ft 317 kts 103°
2026-04-25 15:41 32.41151 34.20817 10096 ft 312 kts 103°
2026-04-25 15:41 32.40717 34.23316 9932 ft 305 kts 104°
2026-04-25 15:41 32.40293 34.25716 9887 ft 293 kts 104°
2026-04-25 15:42 32.39865 34.28100 9421 ft 295 kts 104°
2026-04-25 15:42 32.39448 34.30414 9128 ft 288 kts 104°
2026-04-25 15:42 32.39036 34.32699 8939 ft 280 kts 104°
2026-04-25 15:42 32.38633 34.34928 8830 ft 275 kts 104°
2026-04-25 15:43 32.38228 34.37161 8736 ft 281 kts 103°
2026-04-25 15:43 32.37815 34.39436 8629 ft 285 kts 103°
2026-04-25 15:43 32.37399 34.41731 8514 ft 285 kts 103°
2026-04-25 15:43 32.36985 34.44014 8382 ft 283 kts 103°
2026-04-25 15:44 32.36573 34.46282 8278 ft 282 kts 103°
2026-04-25 15:44 32.36163 34.48538 8172 ft 280 kts 103°
2026-04-25 15:44 32.35752 34.50790 8047 ft 280 kts 104°
2026-04-25 15:44 32.35018 34.52886 7914 ft 276 kts 130°
2026-04-25 15:45 32.33740 34.54541 7964 ft 274 kts 136°
2026-04-25 15:45 32.32403 34.56162 7976 ft 277 kts 136°
2026-04-25 15:45 32.31051 34.57797 7972 ft 278 kts 136°
2026-04-25 15:45 32.30595 34.58351 7962 ft 278 kts 136°
2026-04-25 15:46 32.28368 34.61062 7956 ft 275 kts 136°
2026-04-25 15:46 32.27040 34.62686 7957 ft 275 kts 136°
2026-04-25 15:46 32.25714 34.64310 7952 ft 275 kts 136°
2026-04-25 15:46 32.24388 34.65934 7951 ft 275 kts 136°
2026-04-25 15:47 32.23060 34.67559 7950 ft 275 kts 136°
2026-04-25 15:47 32.21732 34.69185 7964 ft 275 kts 136°
2026-04-25 15:47 32.20401 34.70814 7955 ft 276 kts 136°
2026-04-25 15:47 32.19063 34.72452 7954 ft 277 kts 136°
2026-04-25 15:48 32.17720 34.74095 7949 ft 278 kts 136°
2026-04-25 15:48 32.16377 34.75737 7868 ft 279 kts 136°
2026-04-25 15:48 32.15186 34.77555 7581 ft 283 kts 118°
2026-04-25 15:48 32.14385 34.79676 7367 ft 282 kts 115°
2026-04-25 15:49 32.13601 34.81768 7114 ft 275 kts 116°
2026-04-25 15:49 32.12826 34.83775 6870 ft 269 kts 116°
2026-04-25 15:49 32.12039 34.85786 6617 ft 263 kts 116°
2026-04-25 15:49 32.11277 34.87723 6380 ft 258 kts 116°
2026-04-25 15:50 32.10537 34.89598 6129 ft 254 kts 116°
2026-04-25 15:50 32.09794 34.91474 5882 ft 251 kts 116°
2026-04-25 15:50 32.09061 34.93324 5630 ft 247 kts 116°
2026-04-25 15:50 32.08342 34.95139 5379 ft 242 kts 116°
2026-04-25 15:51 32.07635 34.96924 5132 ft 238 kts 116°
2026-04-25 15:51 32.07399 34.97520 5044 ft 237 kts 116°
2026-04-25 15:51 32.06262 35.00383 4871 ft 228 kts 117°
2026-04-25 15:51 32.05579 35.02101 4892 ft 236 kts 116°
2026-04-25 15:52 32.04874 35.03875 4876 ft 241 kts 116°
2026-04-25 15:52 32.04169 35.05652 4888 ft 238 kts 116°
2026-04-25 15:52 32.03468 35.07423 4893 ft 238 kts 116°
2026-04-25 15:52 32.02768 35.09186 4886 ft 236 kts 116°
2026-04-25 15:53 32.02084 35.10912 4900 ft 228 kts 116°
2026-04-25 15:53 32.01407 35.12614 4906 ft 230 kts 116°
2026-04-25 15:53 32.00726 35.14325 4917 ft 231 kts 116°
2026-04-25 15:53 31.99826 35.15847 4776 ft 225 kts 146°
2026-04-25 15:54 31.98444 35.16435 4681 ft 204 kts 176°
2026-04-25 15:54 31.97065 35.16494 4509 ft 193 kts 183°
2026-04-25 15:54 31.95727 35.16466 4378 ft 192 kts 185°
2026-04-25 15:54 31.94416 35.16321 4223 ft 187 kts 196°
2026-04-25 15:55 31.93178 35.15942 4082 ft 184 kts 198°
2026-04-25 15:55 31.91950 35.15542 4025 ft 181 kts 198°
2026-04-25 15:55 31.90784 35.15152 3976 ft 166 kts 205°
2026-04-25 15:55 31.89942 35.14364 3948 ft 151 kts 240°
2026-04-25 15:56 31.89693 35.13123 3922 ft 178 kts 271°
2026-04-25 15:56 31.89713 35.11546 3981 ft 199 kts 270°
2026-04-25 15:56 31.89726 35.09945 3939 ft 190 kts 271°
2026-04-25 15:56 31.90043 35.08540 3801 ft 174 kts 302°
2026-04-25 15:57 31.90696 35.07378 3723 ft 173 kts 298°
2026-04-25 15:57 31.91311 35.06162 3484 ft 166 kts 299°
2026-04-25 15:57 31.91884 35.05042 3289 ft 159 kts 300°
2026-04-25 15:57 31.92462 35.03922 3063 ft 162 kts 299°
2026-04-25 15:58 31.93045 35.02794 2843 ft 161 kts 300°
2026-04-25 15:58 31.93622 35.01681 2632 ft 160 kts 300°
2026-04-25 15:58 31.94203 35.00560 2407 ft 160 kts 300°
2026-04-25 15:58 31.94786 34.99437 2188 ft 161 kts 301°
2026-04-25 15:59 31.95371 34.98311 1949 ft 163 kts 301°
2026-04-25 15:59 31.95963 34.97170 1729 ft 165 kts 301°
2026-04-25 15:59 31.96563 34.96015 1493 ft 165 kts 301°
2026-04-25 15:59 31.97161 34.94864 1260 ft 164 kts 302°
2026-04-25 16:00 31.97752 34.93726 1032 ft 162 kts 302°
2026-04-25 16:00 31.97951 34.93343 960 ft 162 kts 302°
2026-04-25 16:00 31.98907 34.91503 609 ft 155 kts 301°
2026-04-25 16:00 31.99455 34.90448 389 ft 147 kts 302°
2026-04-25 16:01 32.00008 34.89411 213 ft 152 kts 301°
2026-04-25 16:01 32.00547 34.88364 121 ft 140 kts 302°
2026-04-25 16:01 32.00945 34.87590 121 ft 77 kts 301°
2026-04-25 16:01 32.01059 34.87255 119 ft 28 kts 274°
2026-04-25 16:02 32.01062 34.87156 119 ft 11 kts 272°
2026-04-25 16:02 32.01056 34.87066 116 ft 12 kts 239°
2026-04-25 16:02 32.00994 34.87077 119 ft 11 kts 120°
2026-04-25 16:02 32.00953 34.87155 117 ft 11 kts 122°
2026-04-25 16:03 32.00911 34.87235 116 ft 12 kts 121°
2026-04-25 16:03 32.00863 34.87329 118 ft 14 kts 121°
2026-04-25 16:03 32.00807 34.87438 117 ft 16 kts 121°
2026-04-25 16:03 32.00743 34.87560 117 ft 18 kts 121°
2026-04-25 16:04 32.00674 34.87692 118 ft 19 kts 122°
2026-04-25 16:04 32.00606 34.87823 119 ft 18 kts 121°
2026-04-25 16:04 32.00534 34.87881 116 ft 13 kts 205°
2026-04-25 16:04 32.00460 34.87827 119 ft 12 kts 212°
2026-04-25 16:05 32.00412 34.87793 119 ft 12 kts 211°
2026-04-25 16:05 32.00341 34.87742 118 ft 12 kts 211°
2026-04-25 16:05 32.00183 34.87622 118 ft 14 kts 238°
2026-04-25 16:06 32.00171 34.87537 118 ft 8 kts 261°
2026-04-25 16:06 32.00167 34.87511 119 ft 1 kts 261°
2026-04-25 16:06 32.00166 34.87507 119 ft 0 kts 261°